Sioux City, IA

8:57 PM CST on December 13, 2019 (GMT -0600)
Sioux Gateway

Weather History for KSUX - October, 2019

Change the Weather History Date:

Tuesday, October 15, 2019

  Actual Average Record
Temperature  
Mean Temperature 47 °F 51 °F  
Max Temperature 54 °F 64 °F 90 °F (1958)
Min Temperature 43 °F 38 °F 21 °F (1893)
Degree Days  
Heating Degree Days 18 14  
Month to date heating degree days 174  
Since 1 July heating degree days 321  
Cooling Degree Days 0 0  
Month to date cooling degree days 8  
Year to date cooling degree days 869  
Moisture  
Dew Point 36 °F    
Average Humidity 68    
Maximum Humidity 89    
Minimum Humidity 50    
Precipitation  
Precipitation 0.00 in 0.07 in 1.41 in (1930)
Month to date precipitation 1.23  
Year to date precipitation 24.73  
Snow  
Snow - 0.00 in 0.30 in (1966)
Month to date snowfall 0.2  
Since 1 July snowfall 0.2  
Since 1 September snowfall 0.2  
Snow Depth -    
Sea Level Pressure  
Sea Level Pressure 30.02 in    
Wind  
Wind Speed 16 mph ()    
Max Wind Speed 26 mph    
Max Gust Speed 44 mph    
Visibility 9.9 miles    
Events      
T = Trace of Precipitation, MM = Missing Value Source: Averaged Metar Reports

Daily Weather History Graph

Daily Weather History Graph

Search for Another Location

Airport or City:

Astronomy

Oct. 15, 2019 Rise Set
Actual Time 7:38 AM CDT 6:43 PM CDT
Civil Twilight 7:09 AM CDT 7:12 PM CDT
Nautical Twilight 6:37 AM CDT 7:44 PM CDT
Astronomical Twilight 6:04 AM CDT 8:17 PM CDT
Moon 8:02 PM CDT (10/15) 9:10 AM CDT (10/15)
Length of Visible Light 12h 02m
Length of Day
11h 05m
Full, 97% of the Moon is Illuminated
Oct 15
Full
Oct 21
Last Quarter
Oct 27
New
Nov 4
First Quarter
Nov 12
Full

Hourly Weather History & Observations

Time (CDT) Temp. Windchill Dew Point Humidity Pressure Visibility Wind Dir Wind Speed Gust Speed Precip Events Conditions
12:52 AM 50.0 °F - 45.0 °F 83% 29.78 in 10.0 mi NW 9.2 mph - N/A   Clear
1:52 AM 44.1 °F 39.5 °F 41.0 °F 89% 29.79 in 10.0 mi West 8.1 mph - N/A   Clear
2:52 AM 51.1 °F - 41.0 °F 68% 29.79 in 10.0 mi NW 17.3 mph 25.3 mph N/A   Clear
3:52 AM 48.0 °F - 39.0 °F 71% 29.82 in 10.0 mi NW 17.3 mph 27.6 mph N/A   Clear
4:52 AM 46.9 °F - 37.0 °F 68% 29.86 in 10.0 mi NW 25.3 mph 36.8 mph N/A   Clear
5:52 AM 45.0 °F 36.6 °F 36.0 °F 71% 29.89 in 10.0 mi NW 21.9 mph 32.2 mph N/A   Clear
6:52 AM 44.1 °F 36.2 °F 36.0 °F 73% 29.92 in 10.0 mi NW 18.4 mph 27.6 mph N/A   Clear
7:52 AM 44.1 °F 35.0 °F 37.0 °F 76% 29.96 in 10.0 mi NW 24.2 mph 35.7 mph N/A   Clear
8:52 AM 45.0 °F 36.9 °F 37.9 °F 76% 29.99 in 10.0 mi NW 20.7 mph 35.7 mph N/A   Scattered Clouds
9:04 AM 45.0 °F 36.2 °F 37.0 °F 74% 29.99 in 8.0 mi NW 24.2 mph 40.3 mph N/A   Mostly Cloudy
9:27 AM 46.0 °F 37.8 °F 37.9 °F 73% 29.99 in 10.0 mi NW 23.0 mph 35.7 mph N/A   Scattered Clouds
9:52 AM 46.0 °F 38.8 °F 37.0 °F 71% 30.01 in 10.0 mi NW 18.4 mph 33.4 mph N/A   Partly Cloudy
10:52 AM 48.9 °F - 35.1 °F 59% 30.03 in 10.0 mi NW 17.3 mph 38.0 mph N/A   Clear
11:52 AM 51.1 °F - 33.1 °F 50% 30.03 in 8.0 mi NW 25.3 mph 43.7 mph N/A   Clear
12:52 PM 50.0 °F - 33.1 °F 52% 30.04 in 10.0 mi NW 24.2 mph 36.8 mph N/A   Mostly Cloudy
1:52 PM 50.0 °F - 33.1 °F 52% 30.04 in 10.0 mi NW 24.2 mph 38.0 mph N/A   Overcast
2:52 PM 48.0 °F - 33.1 °F 56% 30.05 in 10.0 mi NW 26.5 mph 39.1 mph N/A   Overcast
3:52 PM 46.9 °F - 32.0 °F 56% 30.07 in 10.0 mi NW 17.3 mph 31.1 mph N/A   Overcast
4:52 PM 46.9 °F - 33.1 °F 59% 30.09 in 10.0 mi NW 24.2 mph 36.8 mph N/A   Overcast
5:52 PM 46.9 °F - 34.0 °F 61% 30.11 in 10.0 mi NW 16.1 mph 32.2 mph N/A   Overcast
6:52 PM 46.0 °F 39.3 °F 34.0 °F 63% 30.14 in 10.0 mi NNW 16.1 mph 31.1 mph N/A   Overcast
7:52 PM 45.0 °F 37.4 °F 35.1 °F 68% 30.14 in 10.0 mi NNW 18.4 mph 28.8 mph N/A   Overcast
8:10 PM 45.0 °F 36.9 °F 35.1 °F 68% 30.13 in 10.0 mi NNW 20.7 mph - N/A   Overcast
8:52 PM 44.1 °F 36.2 °F 35.1 °F 71% 30.17 in 10.0 mi NNW 18.4 mph 26.5 mph N/A   Overcast
9:52 PM 43.0 °F 36.4 °F 35.1 °F 74% 30.20 in 10.0 mi NNW 12.7 mph - N/A   Overcast
10:29 PM 43.0 °F 36.0 °F 35.1 °F 74% 30.19 in 10.0 mi NNW 13.8 mph - N/A   Overcast
10:52 PM 43.0 °F 36.4 °F 36.0 °F 76% 30.21 in 10.0 mi NNW 12.7 mph 24.2 mph N/A   Overcast
11:52 PM 43.0 °F 35.7 °F 36.0 °F 76% 30.22 in 10.0 mi NW 15.0 mph - N/A   Overcast